{"data":{"norad_id":56768,"epoch":"2026-05-25T02:33:21.159360Z","epoch_age_seconds":61880,"freshness":"FRESH","line1":"1 56768U 23078B   26145.10649490  .00001263  00000+0  11365-3 0  9993","line2":"2 56768  69.9988 131.6469 0003515 264.7801  95.2956 14.98326275164627","mean_motion":14.98326275,"eccentricity":0.0003515,"inclination_deg":69.9988,"raan_deg":131.6469,"arg_perigee_deg":264.7801,"mean_anomaly_deg":95.2956,"bstar":0.00011365,"rev_number":16462,"period_min":96.107238058012,"perigee_km":569.62441337331,"apogee_km":574.5104070737,"semimajor_km":6950.2044102235,"source":"CELESTRAK","updated_at":"2026-05-25T13:38:18.123719Z"}}